Time,TemperatureF,DewpointF,PressureIn,WindDirection,WindDirectionDegrees,WindSpeedMPH,WindSpeedGustMPH,Humidity,HourlyPrecipIn,Conditions,Clouds,dailyrainin,SoftwareType,DateUTC
2013-03-26 00:02:00,19.2,9.2,29.86,WSW,247,0.0,0.0,65,0.00,,,0.00,LWC V2.10 B1813,2013-03-26 06:02:00,
2013-03-26 00:06:00,19.2,9.2,29.86,WSW,247,0.0,0.0,65,0.00,,,0.00,LWC V2.10 B1813,2013-03-26 06:06:00,
2013-03-26 00:11:00,19.6,9.6,29.86,WSW,247,0.0,0.0,65,0.00,,,0.00,LWC V2.10 B1813,2013-03-26 06:11:00,
2013-03-26 00:16:00,19.6,9.6,29.85,WSW,247,0.0,0.0,65,0.00,,,0.00,LWC V2.10 B1813,2013-03-26 06:16:00,
2013-03-26 00:21:00,19.6,9.6,29.86,WSW,247,0.0,0.0,65,0.00,,,0.00,LWC V2.10 B1813,2013-03-26 06:21:00,
2013-03-26 00:26:00,19.6,9.6,29.85,WSW,247,0.0,0.0,65,0.00,,,0.00,LWC V2.10 B1813,2013-03-26 06:26:00,
2013-03-26 00:31:00,19.6,9.6,29.85,WSW,247,0.0,0.0,65,0.00,,,0.00,LWC V2.10 B1813,2013-03-26 06:31:00,
2013-03-26 00:36:00,19.6,9.6,29.85,WSW,247,0.0,0.0,65,0.00,,,0.00,LWC V2.10 B1813,2013-03-26 06:36:00,
2013-03-26 00:41:00,19.8,9.8,29.85,WSW,247,0.0,0.0,65,0.00,,,0.00,LWC V2.10 B1813,2013-03-26 06:41:00,
2013-03-26 00:46:00,19.6,9.6,29.86,WSW,247,0.0,0.0,65,0.00,,,0.00,LWC V2.10 B1813,2013-03-26 06:46:00,
2013-03-26 00:51:00,19.4,9.4,29.85,WSW,247,0.0,0.0,65,0.00,,,0.00,LWC V2.10 B1813,2013-03-26 06:51:00,
2013-03-26 00:56:00,19.2,9.2,29.84,WSW,247,0.0,0.0,65,0.00,,,0.00,LWC V2.10 B1813,2013-03-26 06:56:00,
2013-03-26 01:02:00,19.2,9.2,29.84,WSW,247,0.0,0.0,65,0.00,,,0.00,LWC V2.10 B1813,2013-03-26 07:02:00,
2013-03-26 01:07:00,19.2,9.2,29.84,WSW,247,0.0,0.0,65,0.00,,,0.00,LWC V2.10 B1813,2013-03-26 07:07:00,
2013-03-26 01:12:00,18.9,8.9,29.84,WSW,247,0.0,0.0,65,0.00,,,0.00,LWC V2.10 B1813,2013-03-26 07:12:00,
2013-03-26 01:17:00,19.0,9.1,29.84,WSW,247,0.0,0.0,65,0.00,,,0.00,LWC V2.10 B1813,2013-03-26 07:17:00,
2013-03-26 01:22:00,19.0,9.1,29.84,WSW,247,0.0,0.0,65,0.00,,,0.00,LWC V2.10 B1813,2013-03-26 07:22:00,
2013-03-26 01:27:00,19.2,9.2,29.84,WSW,247,0.0,0.0,65,0.00,,,0.00,LWC V2.10 B1813,2013-03-26 07:27:00,
2013-03-26 01:32:00,19.6,9.6,29.84,WSW,247,0.0,0.0,65,0.00,,,0.00,LWC V2.10 B1813,2013-03-26 07:32:00,
2013-03-26 01:37:00,19.8,9.8,29.83,WSW,247,0.0,0.0,65,0.00,,,0.00,LWC V2.10 B1813,2013-03-26 07:37:00,
2013-03-26 01:42:00,19.6,9.6,29.83,WSW,247,0.0,0.0,65,0.00,,,0.00,LWC V2.10 B1813,2013-03-26 07:42:00,
2013-03-26 01:47:00,19.2,9.2,29.84,WSW,247,0.0,0.0,65,0.00,,,0.00,LWC V2.10 B1813,2013-03-26 07:47:00,
2013-03-26 01:52:00,18.9,9.1,29.84,WSW,247,0.0,0.0,65,0.00,,,0.00,LWC V2.10 B1813,2013-03-26 07:52:00,
2013-03-26 01:57:00,18.7,8.8,29.83,WSW,247,0.0,0.0,65,0.00,,,0.00,LWC V2.10 B1813,2013-03-26 07:57:00,
2013-03-26 02:02:00,19.2,9.2,29.83,West,270,0.0,0.0,65,0.00,,,0.00,LWC V2.10 B1813,2013-03-26 08:02:00,
2013-03-26 02:07:00,19.4,9.6,29.83,West,270,0.0,0.0,65,0.00,,,0.00,LWC V2.10 B1813,2013-03-26 08:07:00,
2013-03-26 02:12:00,19.6,9.6,29.83,West,270,0.0,0.0,65,0.00,,,0.00,LWC V2.10 B1813,2013-03-26 08:12:00,
2013-03-26 02:17:00,19.2,9.2,29.83,West,270,0.0,0.0,65,0.00,,,0.00,LWC V2.10 B1813,2013-03-26 08:17:00,
2013-03-26 02:22:00,19.2,9.2,29.82,SW,225,0.0,0.0,65,0.00,,,0.00,LWC V2.10 B1813,2013-03-26 08:22:00,
2013-03-26 02:27:00,19.2,9.2,29.82,SW,225,0.0,0.0,65,0.00,,,0.00,LWC V2.10 B1813,2013-03-26 08:27:00,
2013-03-26 02:32:00,19.2,9.2,29.82,WSW,247,0.0,0.0,65,0.00,,,0.00,LWC V2.10 B1813,2013-03-26 08:32:00,
2013-03-26 02:37:00,19.2,9.2,29.82,WSW,247,0.0,0.0,65,0.00,,,0.00,LWC V2.10 B1813,2013-03-26 08:37:00,
2013-03-26 02:42:00,19.2,9.2,29.81,WSW,247,0.0,0.0,65,0.00,,,0.00,LWC V2.10 B1813,2013-03-26 08:42:00,
2013-03-26 02:47:00,19.0,9.1,29.81,WSW,247,0.0,0.0,65,0.00,,,0.00,LWC V2.10 B1813,2013-03-26 08:47:00,
2013-03-26 02:52:00,19.2,9.2,29.81,WSW,247,0.0,0.0,65,0.00,,,0.00,LWC V2.10 B1813,2013-03-26 08:52:00,
2013-03-26 02:57:00,19.2,9.2,29.81,WSW,247,0.0,0.0,65,0.00,,,0.00,LWC V2.10 B1813,2013-03-26 08:57:00,
2013-03-26 03:02:00,19.0,9.1,29.81,WSW,247,0.0,0.0,65,0.00,,,0.00,LWC V2.10 B1813,2013-03-26 09:02:00,
2013-03-26 03:07:00,18.9,8.9,29.81,WSW,247,0.0,0.0,65,0.00,,,0.00,LWC V2.10 B1813,2013-03-26 09:07:00,
2013-03-26 03:12:00,18.9,8.9,29.81,WSW,247,0.0,0.0,65,0.00,,,0.00,LWC V2.10 B1813,2013-03-26 09:12:00,
2013-03-26 03:17:00,19.0,9.4,29.80,WSW,247,0.0,0.0,66,0.00,,,0.00,LWC V2.10 B1813,2013-03-26 09:17:00,
2013-03-26 03:22:00,18.9,9.3,29.80,WSW,247,0.0,0.0,66,0.00,,,0.00,LWC V2.10 B1813,2013-03-26 09:22:00,
2013-03-26 03:27:00,18.9,9.3,29.80,WSW,247,0.0,0.0,66,0.00,,,0.00,LWC V2.10 B1813,2013-03-26 09:27:00,
2013-03-26 03:32:00,19.0,9.4,29.80,WSW,247,0.0,0.0,66,0.00,,,0.00,LWC V2.10 B1813,2013-03-26 09:32:00,
2013-03-26 03:37:00,19.0,9.3,29.80,WSW,247,0.0,0.0,66,0.00,,,0.00,LWC V2.10 B1813,2013-03-26 09:37:00,
2013-03-26 03:42:00,18.9,9.3,29.80,WSW,247,0.0,0.0,66,0.00,,,0.00,LWC V2.10 B1813,2013-03-26 09:42:00,
2013-03-26 03:47:00,18.7,9.1,29.80,WSW,247,0.0,0.0,66,0.00,,,0.00,LWC V2.10 B1813,2013-03-26 09:47:00,
2013-03-26 03:53:00,18.5,8.9,29.79,WSW,247,0.0,0.0,66,0.00,,,0.00,LWC V2.10 B1813,2013-03-26 09:53:00,
2013-03-26 03:58:00,18.3,8.8,29.79,WSW,247,0.0,0.0,66,0.00,,,0.00,LWC V2.10 B1813,2013-03-26 09:58:00,
2013-03-26 04:03:00,18.1,8.6,29.79,WSW,247,0.0,0.0,66,0.00,,,0.00,LWC V2.10 B1813,2013-03-26 10:03:00,
2013-03-26 04:08:00,18.3,8.8,29.79,WSW,247,0.0,0.0,66,0.00,,,0.00,LWC V2.10 B1813,2013-03-26 10:08:00,
2013-03-26 04:13:00,18.1,8.6,29.79,WSW,247,0.0,0.0,66,0.00,,,0.00,LWC V2.10 B1813,2013-03-26 10:13:00,
2013-03-26 04:18:00,18.0,8.6,29.79,WSW,247,0.0,0.0,67,0.00,,,0.00,LWC V2.10 B1813,2013-03-26 10:18:00,
2013-03-26 04:23:00,17.8,8.6,29.79,WSW,247,0.0,0.0,67,0.00,,,0.00,LWC V2.10 B1813,2013-03-26 10:23:00,
2013-03-26 04:28:00,17.8,8.6,29.79,WSW,247,0.0,0.0,67,0.00,,,0.00,LWC V2.10 B1813,2013-03-26 10:28:00,
2013-03-26 04:33:00,17.4,8.6,29.79,West,270,0.0,0.0,68,0.00,,,0.00,LWC V2.10 B1813,2013-03-26 10:33:00,
2013-03-26 04:38:00,18.0,9.1,29.78,West,270,0.0,0.0,68,0.00,,,0.00,LWC V2.10 B1813,2013-03-26 10:38:00,
2013-03-26 04:43:00,18.1,9.3,29.78,WSW,247,0.0,0.0,68,0.00,,,0.00,LWC V2.10 B1813,2013-03-26 10:43:00,
2013-03-26 04:48:00,18.5,9.5,29.78,SW,225,0.0,0.0,68,0.00,,,0.00,LWC V2.10 B1813,2013-03-26 10:48:00,
2013-03-26 04:55:00,19.0,10.1,29.78,SW,225,0.0,0.0,68,0.00,,,0.00,LWC V2.10 B1813,2013-03-26 10:55:00,
2013-03-26 05:00:00,19.2,10.3,29.77,SW,225,0.0,0.0,68,0.00,,,0.00,LWC V2.10 B1813,2013-03-26 11:00:00,
2013-03-26 05:05:00,19.0,10.1,29.77,SW,225,0.0,0.0,68,0.00,,,0.00,LWC V2.10 B1813,2013-03-26 11:05:00,
2013-03-26 05:10:00,19.0,10.1,29.78,SW,225,0.0,0.0,68,0.00,,,0.00,LWC V2.10 B1813,2013-03-26 11:10:00,
2013-03-26 05:15:00,19.0,10.1,29.77,SW,225,0.0,0.0,68,0.00,,,0.00,LWC V2.10 B1813,2013-03-26 11:15:00,
2013-03-26 05:20:00,19.0,10.1,29.77,SW,225,0.0,0.0,68,0.00,,,0.00,LWC V2.10 B1813,2013-03-26 11:20:00,
2013-03-26 05:25:00,19.0,10.5,29.77,SW,225,0.0,0.0,69,0.00,,,0.00,LWC V2.10 B1813,2013-03-26 11:25:00,
2013-03-26 05:30:00,19.2,10.6,29.77,SSW,202,0.0,0.0,69,0.00,,,0.00,LWC V2.10 B1813,2013-03-26 11:30:00,
2013-03-26 05:35:00,19.4,10.8,29.77,SSW,202,0.0,0.0,69,0.00,,,0.00,LWC V2.10 B1813,2013-03-26 11:35:00,
2013-03-26 05:40:00,19.2,10.6,29.76,SSW,202,0.0,0.0,69,0.00,,,0.00,LWC V2.10 B1813,2013-03-26 11:40:00,
2013-03-26 05:45:00,19.4,10.8,29.77,SSW,202,0.0,0.0,69,0.00,,,0.00,LWC V2.10 B1813,2013-03-26 11:45:00,
2013-03-26 05:50:00,19.4,10.8,29.76,SSW,202,0.0,0.0,69,0.00,,,0.00,LWC V2.10 B1813,2013-03-26 11:50:00,
2013-03-26 05:55:00,19.2,10.6,29.77,SSW,202,0.0,0.0,69,0.00,,,0.00,LWC V2.10 B1813,2013-03-26 11:55:00,
2013-03-26 06:00:00,19.2,10.6,29.77,SSW,202,0.0,0.0,69,0.00,,,0.00,LWC V2.10 B1813,2013-03-26 12:00:00,
2013-03-26 06:05:00,19.2,10.6,29.77,SSW,202,0.0,0.0,69,0.00,,,0.00,LWC V2.10 B1813,2013-03-26 12:05:00,
2013-03-26 06:10:00,19.2,10.6,29.77,SSW,202,0.0,0.0,69,0.00,,,0.00,LWC V2.10 B1813,2013-03-26 12:10:00,
2013-03-26 06:15:00,19.4,10.8,29.77,SSW,202,0.0,0.0,69,0.00,,,0.00,LWC V2.10 B1813,2013-03-26 12:15:00,
2013-03-26 06:20:00,19.6,11.0,29.77,SSW,202,0.0,0.0,69,0.00,,,0.00,LWC V2.10 B1813,2013-03-26 12:20:00,
2013-03-26 06:25:00,19.6,11.0,29.77,SSW,202,0.0,0.0,69,0.00,,,0.00,LWC V2.10 B1813,2013-03-26 12:25:00,
2013-03-26 06:30:00,19.6,11.0,29.77,SSW,202,0.0,0.0,69,0.00,,,0.00,LWC V2.10 B1813,2013-03-26 12:30:00,
2013-03-26 06:35:00,19.6,11.3,29.77,SSW,202,0.0,0.0,70,0.00,,,0.00,LWC V2.10 B1813,2013-03-26 12:35:00,
2013-03-26 06:40:00,19.6,11.3,29.78,SSW,202,0.0,0.0,70,0.00,,,0.00,LWC V2.10 B1813,2013-03-26 12:40:00,
2013-03-26 06:45:00,19.6,11.3,29.77,SSW,202,0.0,0.0,70,0.00,,,0.00,LWC V2.10 B1813,2013-03-26 12:45:00,
2013-03-26 06:50:00,19.6,11.3,29.77,SSW,202,0.0,0.0,70,0.00,,,0.00,LWC V2.10 B1813,2013-03-26 12:50:00,
2013-03-26 06:55:00,19.9,12.0,29.77,SSW,202,0.0,0.0,71,0.00,,,0.00,LWC V2.10 B1813,2013-03-26 12:55:00,
2013-03-26 07:00:00,20.3,12.3,29.77,SSW,202,0.0,0.0,71,0.00,,,0.00,LWC V2.10 B1813,2013-03-26 13:00:00,
2013-03-26 07:05:00,20.5,12.5,29.77,SSW,202,0.0,0.0,71,0.00,,,0.00,LWC V2.10 B1813,2013-03-26 13:05:00,
2013-03-26 07:10:00,20.5,12.5,29.77,SW,225,0.0,0.0,71,0.00,,,0.00,LWC V2.10 B1813,2013-03-26 13:10:00,
2013-03-26 07:15:00,20.7,12.7,29.77,SW,225,0.0,0.0,71,0.00,,,0.00,LWC V2.10 B1813,2013-03-26 13:15:00,
2013-03-26 07:20:00,20.8,12.9,29.77,SW,225,0.0,0.0,71,0.00,,,0.00,LWC V2.10 B1813,2013-03-26 13:20:00,
2013-03-26 07:25:00,21.0,12.7,29.77,SW,225,0.0,0.0,70,0.00,,,0.00,LWC V2.10 B1813,2013-03-26 13:25:00,
2013-03-26 07:30:00,21.4,13.1,29.77,SW,225,0.0,0.0,70,0.00,,,0.00,LWC V2.10 B1813,2013-03-26 13:30:00,
2013-03-26 07:35:00,22.1,13.5,29.77,SW,225,0.0,0.0,69,0.00,,,0.00,LWC V2.10 B1813,2013-03-26 13:35:00,
2013-03-26 07:40:00,22.5,13.8,29.77,SW,225,0.0,0.0,69,0.00,,,0.00,LWC V2.10 B1813,2013-03-26 13:40:00,
2013-03-26 07:45:00,22.8,14.2,29.77,SW,225,0.0,0.0,69,0.00,,,0.00,LWC V2.10 B1813,2013-03-26 13:45:00,
2013-03-26 07:50:00,23.5,14.1,29.77,SW,225,0.0,0.0,67,0.00,,,0.00,LWC V2.10 B1813,2013-03-26 13:50:00,
2013-03-26 07:55:00,23.9,14.5,29.76,SW,225,0.0,0.0,67,0.00,,,0.00,LWC V2.10 B1813,2013-03-26 13:55:00,
2013-03-26 08:00:00,24.4,15.0,29.76,SW,225,0.0,0.0,67,0.00,,,0.00,LWC V2.10 B1813,2013-03-26 14:00:00,
2013-03-26 08:05:00,25.2,15.3,29.76,SW,225,0.0,0.0,66,0.00,,,0.00,LWC V2.10 B1813,2013-03-26 14:05:00,
2013-03-26 08:10:00,25.5,15.3,29.76,SW,225,0.0,0.0,65,0.00,,,0.00,LWC V2.10 B1813,2013-03-26 14:10:00,
2013-03-26 08:15:00,25.9,15.5,29.76,SW,225,0.0,0.0,64,0.00,,,0.00,LWC V2.10 B1813,2013-03-26 14:15:00,
2013-03-26 08:20:00,26.4,15.4,29.76,SW,225,0.0,0.0,63,0.00,,,0.00,LWC V2.10 B1813,2013-03-26 14:20:00,
2013-03-26 08:25:00,27.0,16.0,29.76,SW,225,0.0,0.0,63,0.00,,,0.00,LWC V2.10 B1813,2013-03-26 14:25:00,
2013-03-26 08:31:00,27.7,16.3,29.75,SW,225,0.0,0.0,62,0.00,,,0.00,LWC V2.10 B1813,2013-03-26 14:31:00,
2013-03-26 08:36:00,28.2,16.9,29.74,SW,225,0.0,0.0,62,0.00,,,0.00,LWC V2.10 B1813,2013-03-26 14:36:00,
2013-03-26 08:41:00,28.9,17.2,29.75,SE,135,0.0,0.0,61,0.00,,,0.00,LWC V2.10 B1813,2013-03-26 14:41:00,
2013-03-26 08:46:00,29.5,17.3,29.75,SE,135,0.0,0.0,61,0.00,,,0.00,LWC V2.10 B1813,2013-03-26 14:46:00,
2013-03-26 08:51:00,29.5,17.3,29.74,SE,135,0.0,0.0,60,0.00,,,0.00,LWC V2.10 B1813,2013-03-26 14:51:00,
2013-03-26 08:56:00,30.0,17.8,29.75,SE,135,0.0,0.0,60,0.00,,,0.00,LWC V2.10 B1813,2013-03-26 14:56:00,
2013-03-26 09:01:00,30.0,17.4,29.75,SE,135,0.0,0.0,59,0.00,,,0.00,LWC V2.10 B1813,2013-03-26 15:01:00,
2013-03-26 09:06:00,30.0,17.0,29.75,ENE,67,0.0,0.0,58,0.00,,,0.00,LWC V2.10 B1813,2013-03-26 15:06:00,
2013-03-26 09:11:00,30.0,17.0,29.74,SSE,157,0.0,0.0,58,0.00,,,0.00,LWC V2.10 B1813,2013-03-26 15:11:00,
2013-03-26 09:16:00,30.7,17.7,29.75,SSE,157,0.0,0.0,58,0.00,,,0.00,LWC V2.10 B1813,2013-03-26 15:16:00,
2013-03-26 09:21:00,30.9,17.4,29.75,SSE,157,0.0,0.0,57,0.00,,,0.00,LWC V2.10 B1813,2013-03-26 15:21:00,
2013-03-26 09:26:00,33.1,19.0,29.74,SSE,157,0.0,0.0,56,0.00,,,0.00,LWC V2.10 B1813,2013-03-26 15:26:00,
2013-03-26 09:31:00,34.3,19.3,29.74,SE,135,0.0,0.0,53,0.00,,,0.00,LWC V2.10 B1813,2013-03-26 15:31:00,
2013-03-26 09:36:00,35.4,19.5,29.74,SE,135,0.0,0.0,52,0.00,,,0.00,LWC V2.10 B1813,2013-03-26 15:36:00,
2013-03-26 09:41:00,36.0,19.6,29.74,SSE,157,0.0,0.0,51,0.00,,,0.00,LWC V2.10 B1813,2013-03-26 15:41:00,
2013-03-26 09:46:00,37.4,20.9,29.74,South,180,0.0,0.0,51,0.00,,,0.00,LWC V2.10 B1813,2013-03-26 15:46:00,
2013-03-26 09:51:00,37.9,21.4,29.74,South,180,0.0,0.0,51,0.00,,,0.00,LWC V2.10 B1813,2013-03-26 15:51:00,
2013-03-26 09:56:00,38.8,21.3,29.73,SSW,202,0.0,0.0,49,0.00,,,0.00,LWC V2.10 B1813,2013-03-26 15:56:00,
2013-03-26 10:01:00,37.6,19.6,29.73,NE,45,0.0,0.0,48,0.00,,,0.00,LWC V2.10 B1813,2013-03-26 16:01:00,
2013-03-26 10:06:00,38.1,20.1,29.73,East,90,0.0,0.0,48,0.00,,,0.00,LWC V2.10 B1813,2013-03-26 16:06:00,
2013-03-26 10:11:00,39.4,21.7,29.73,SE,135,0.0,0.0,48,0.00,,,0.00,LWC V2.10 B1813,2013-03-26 16:11:00,
2013-03-26 10:16:00,39.6,21.4,29.73,SSE,157,0.0,0.0,48,0.00,,,0.00,LWC V2.10 B1813,2013-03-26 16:16:00,
2013-03-26 10:21:00,38.8,21.3,29.73,SSE,157,0.0,0.0,49,0.00,,,0.00,LWC V2.10 B1813,2013-03-26 16:21:00,
2013-03-26 10:26:00,39.0,21.4,29.72,NE,45,0.0,0.0,49,0.00,,,0.00,LWC V2.10 B1813,2013-03-26 16:26:00,
2013-03-26 10:31:00,39.9,21.7,29.72,SSE,157,0.0,0.0,48,0.00,,,0.00,LWC V2.10 B1813,2013-03-26 16:31:00,
2013-03-26 10:36:00,40.8,22.5,29.72,ESE,112,0.0,0.0,48,0.00,,,0.00,LWC V2.10 B1813,2013-03-26 16:36:00,
2013-03-26 10:42:00,40.6,21.8,29.72,SE,135,0.0,0.0,47,0.00,,,0.00,LWC V2.10 B1813,2013-03-26 16:42:00,
2013-03-26 10:47:00,41.2,22.3,29.71,NNE,22,0.0,0.0,47,0.00,,,0.00,LWC V2.10 B1813,2013-03-26 16:47:00,
2013-03-26 10:52:00,40.5,22.0,29.71,SSE,157,0.0,0.0,47,0.00,,,0.00,LWC V2.10 B1813,2013-03-26 16:52:00,
2013-03-26 10:57:00,41.2,22.3,29.71,East,90,0.0,0.0,47,0.00,,,0.00,LWC V2.10 B1813,2013-03-26 16:57:00,
2013-03-26 11:02:00,41.0,21.6,29.71,NE,45,0.0,0.0,46,0.00,,,0.00,LWC V2.10 B1813,2013-03-26 17:02:00,
2013-03-26 11:07:00,41.5,23.2,29.71,East,90,0.0,0.0,48,0.00,,,0.00,LWC V2.10 B1813,2013-03-26 17:07:00,
2013-03-26 11:12:00,41.9,23.6,29.71,NNE,22,0.0,0.0,48,0.00,,,0.00,LWC V2.10 B1813,2013-03-26 17:12:00,
2013-03-26 11:17:00,41.4,22.5,29.71,SE,135,0.0,0.0,47,0.00,,,0.00,LWC V2.10 B1813,2013-03-26 17:17:00,
2013-03-26 11:22:00,41.7,23.4,29.71,SE,135,0.0,0.0,48,0.00,,,0.00,LWC V2.10 B1813,2013-03-26 17:22:00,
2013-03-26 11:27:00,42.3,23.9,29.71,SSE,157,0.0,0.0,48,0.00,,,0.00,LWC V2.10 B1813,2013-03-26 17:27:00,
2013-03-26 11:32:00,41.5,22.1,29.71,SSE,157,0.0,0.0,46,0.00,,,0.00,LWC V2.10 B1813,2013-03-26 17:32:00,
2013-03-26 11:37:00,42.3,23.2,29.71,SE,135,0.0,0.0,47,0.00,,,0.00,LWC V2.10 B1813,2013-03-26 17:37:00,
2013-03-26 11:42:00,42.4,23.0,29.71,South,180,0.0,0.0,46,0.00,,,0.00,LWC V2.10 B1813,2013-03-26 17:42:00,
2013-03-26 11:47:00,43.5,23.5,29.70,SE,135,0.0,0.0,45,0.00,,,0.00,LWC V2.10 B1813,2013-03-26 17:47:00,
2013-03-26 11:52:00,43.7,23.6,29.70,SE,135,3.4,3.4,44,0.00,,,0.00,LWC V2.10 B1813,2013-03-26 17:52:00,
2013-03-26 11:57:00,43.0,23.0,29.70,South,180,0.0,0.0,45,0.00,,,0.00,LWC V2.10 B1813,2013-03-26 17:57:00,
2013-03-26 12:02:00,42.6,23.2,29.70,SE,135,0.0,0.0,46,0.00,,,0.00,LWC V2.10 B1813,2013-03-26 18:02:00,
2013-03-26 12:07:00,43.0,24.2,29.70,SE,135,0.0,2.2,46,0.00,,,0.00,LWC V2.10 B1813,2013-03-26 18:07:00,
2013-03-26 12:12:00,43.3,23.3,29.69,NNE,22,0.0,0.0,45,0.00,,,0.00,LWC V2.10 B1813,2013-03-26 18:12:00,
2013-03-26 12:17:00,43.2,24.2,29.69,SE,135,0.0,0.0,47,0.00,,,0.00,LWC V2.10 B1813,2013-03-26 18:17:00,
2013-03-26 12:22:00,43.9,24.3,29.69,SSE,157,0.0,0.0,46,0.00,,,0.00,LWC V2.10 B1813,2013-03-26 18:22:00,
2013-03-26 12:27:00,45.0,25.3,29.69,SSE,157,0.0,0.0,46,0.00,,,0.00,LWC V2.10 B1813,2013-03-26 18:27:00,
2013-03-26 12:32:00,45.7,26.0,29.69,SE,135,0.0,0.0,46,0.00,,,0.00,LWC V2.10 B1813,2013-03-26 18:32:00,
2013-03-26 12:37:00,46.2,25.9,29.69,SSE,157,0.0,0.0,45,0.00,,,0.00,LWC V2.10 B1813,2013-03-26 18:37:00,
2013-03-26 12:42:00,45.7,24.9,29.69,NNE,22,0.0,4.7,44,0.00,,,0.00,LWC V2.10 B1813,2013-03-26 18:42:00,
2013-03-26 12:47:00,45.9,26.7,29.68,ENE,67,0.0,0.0,47,0.00,,,0.00,LWC V2.10 B1813,2013-03-26 18:47:00,
2013-03-26 12:52:00,46.9,26.9,29.68,South,180,0.0,0.0,45,0.00,,,0.00,LWC V2.10 B1813,2013-03-26 18:52:00,
2013-03-26 12:57:00,46.8,25.8,29.68,NE,45,4.2,4.2,44,0.00,,,0.00,LWC V2.10 B1813,2013-03-26 18:57:00,
2013-03-26 13:02:00,46.6,26.8,29.69,SSE,157,0.0,0.0,46,0.00,,,0.00,LWC V2.10 B1813,2013-03-26 19:02:00,
2013-03-26 13:07:00,47.7,27.6,29.68,SSE,157,2.2,3.4,46,0.00,,,0.00,LWC V2.10 B1813,2013-03-26 19:07:00,
2013-03-26 13:12:00,47.8,27.9,29.69,NNE,22,0.0,0.0,46,0.00,,,0.00,LWC V2.10 B1813,2013-03-26 19:12:00,
2013-03-26 13:17:00,47.3,27.4,29.68,SE,135,6.3,6.3,46,0.00,,,0.00,LWC V2.10 B1813,2013-03-26 19:17:00,
2013-03-26 13:22:00,46.6,26.4,29.68,South,180,4.7,4.7,46,0.00,,,0.00,LWC V2.10 B1813,2013-03-26 19:22:00,
2013-03-26 13:27:00,46.0,26.8,29.68,SE,135,0.0,6.3,47,0.00,,,0.00,LWC V2.10 B1813,2013-03-26 19:27:00,
2013-03-26 13:32:00,45.7,26.5,29.68,East,90,0.0,0.0,47,0.00,,,0.00,LWC V2.10 B1813,2013-03-26 19:32:00,
2013-03-26 13:37:00,45.5,26.0,29.68,SE,135,0.0,0.0,47,0.00,,,0.00,LWC V2.10 B1813,2013-03-26 19:37:00,
2013-03-26 13:42:00,46.2,27.5,29.67,SSE,157,0.0,0.0,48,0.00,,,0.00,LWC V2.10 B1813,2013-03-26 19:42:00,
2013-03-26 13:47:00,46.8,27.5,29.67,SE,135,0.0,0.0,47,0.00,,,0.00,LWC V2.10 B1813,2013-03-26 19:47:00,
2013-03-26 13:52:00,47.3,27.4,29.67,SSE,157,0.0,4.9,46,0.00,,,0.00,LWC V2.10 B1813,2013-03-26 19:52:00,
2013-03-26 13:57:00,47.1,27.2,29.66,SE,135,0.0,0.0,46,0.00,,,0.00,LWC V2.10 B1813,2013-03-26 19:57:00,
2013-03-26 14:02:00,47.3,27.4,29.66,NE,45,0.0,0.0,46,0.00,,,0.00,LWC V2.10 B1813,2013-03-26 20:02:00,
2013-03-26 14:07:00,46.9,27.6,29.66,ENE,67,0.0,0.0,47,0.00,,,0.00,LWC V2.10 B1813,2013-03-26 20:07:00,
2013-03-26 14:12:00,46.0,26.8,29.66,NE,45,0.0,0.0,47,0.00,,,0.00,LWC V2.10 B1813,2013-03-26 20:12:00,
2013-03-26 14:17:00,45.5,26.9,29.66,SE,135,0.0,0.0,48,0.00,,,0.00,LWC V2.10 B1813,2013-03-26 20:17:00,
2013-03-26 14:22:00,44.4,25.9,29.66,South,180,0.0,0.0,48,0.00,,,0.00,LWC V2.10 B1813,2013-03-26 20:22:00,
2013-03-26 14:27:00,44.4,25.9,29.66,South,180,0.0,0.0,48,0.00,,,0.00,LWC V2.10 B1813,2013-03-26 20:27:00,
2013-03-26 14:32:00,44.2,26.3,29.66,SSE,157,2.9,2.9,49,0.00,,,0.00,LWC V2.10 B1813,2013-03-26 20:32:00,
2013-03-26 14:37:00,44.4,26.4,29.65,SE,135,0.0,0.0,49,0.00,,,0.00,LWC V2.10 B1813,2013-03-26 20:37:00,
2013-03-26 14:42:00,44.2,26.8,29.65,SSE,157,0.0,0.0,50,0.00,,,0.00,LWC V2.10 B1813,2013-03-26 20:42:00,
2013-03-26 14:47:00,44.1,26.7,29.65,SSE,157,0.0,0.0,50,0.00,,,0.00,LWC V2.10 B1813,2013-03-26 20:47:00,
2013-03-26 14:52:00,44.2,26.3,29.65,NE,45,0.7,0.7,49,0.00,,,0.00,LWC V2.10 B1813,2013-03-26 20:52:00,
2013-03-26 14:57:00,43.5,25.6,29.65,NNE,22,0.0,0.0,49,0.00,,,0.00,LWC V2.10 B1813,2013-03-26 20:57:00,
2013-03-26 15:02:00,43.2,26.3,29.65,NE,45,0.0,0.0,51,0.00,,,0.00,LWC V2.10 B1813,2013-03-26 21:02:00,
2013-03-26 15:07:00,43.3,26.4,29.65,NE,45,0.0,0.0,51,0.00,,,0.00,LWC V2.10 B1813,2013-03-26 21:07:00,
2013-03-26 15:12:00,43.2,26.3,29.65,North,0,0.0,0.0,51,0.00,,,0.00,LWC V2.10 B1813,2013-03-26 21:12:00,
2013-03-26 15:17:00,42.6,25.8,29.65,NNE,22,0.0,0.0,51,0.00,,,0.00,LWC V2.10 B1813,2013-03-26 21:17:00,
2013-03-26 15:22:00,42.4,25.6,29.65,NNE,22,0.0,0.0,51,0.00,,,0.00,LWC V2.10 B1813,2013-03-26 21:22:00,
2013-03-26 15:27:00,42.8,26.0,29.65,SSE,157,2.0,2.0,51,0.00,,,0.00,LWC V2.10 B1813,2013-03-26 21:27:00,
2013-03-26 15:32:00,43.7,26.8,29.65,ENE,67,0.0,0.0,51,0.00,,,0.00,LWC V2.10 B1813,2013-03-26 21:32:00,
2013-03-26 15:37:00,43.9,26.5,29.65,SE,135,0.0,0.0,50,0.00,,,0.00,LWC V2.10 B1813,2013-03-26 21:37:00,
2013-03-26 15:42:00,44.2,26.8,29.65,SE,135,0.0,0.0,50,0.00,,,0.00,LWC V2.10 B1813,2013-03-26 21:42:00,
2013-03-26 15:47:00,44.4,27.0,29.66,SSE,157,0.0,0.0,50,0.00,,,0.00,LWC V2.10 B1813,2013-03-26 21:47:00,
2013-03-26 15:52:00,44.6,27.1,29.65,SSW,202,0.0,0.0,50,0.00,,,0.00,LWC V2.10 B1813,2013-03-26 21:52:00,
2013-03-26 15:57:00,45.0,27.5,29.65,NNE,22,0.0,0.0,50,0.00,,,0.00,LWC V2.10 B1813,2013-03-26 21:57:00,
2013-03-26 16:02:00,44.4,27.0,29.65,SE,135,0.0,0.0,50,0.00,,,0.00,LWC V2.10 B1813,2013-03-26 22:02:00,
2013-03-26 16:07:00,44.6,27.1,29.65,SE,135,0.0,0.0,50,0.00,,,0.00,LWC V2.10 B1813,2013-03-26 22:07:00,
2013-03-26 16:12:00,44.4,27.4,29.64,SSE,157,3.1,3.1,51,0.00,,,0.00,LWC V2.10 B1813,2013-03-26 22:12:00,
2013-03-26 16:17:00,43.9,26.9,29.64,SE,135,0.0,3.4,51,0.00,,,0.00,LWC V2.10 B1813,2013-03-26 22:17:00,
2013-03-26 16:22:00,44.1,27.1,29.64,ENE,67,0.0,0.0,51,0.00,,,0.00,LWC V2.10 B1813,2013-03-26 22:22:00,
2013-03-26 16:27:00,43.9,26.9,29.65,SE,135,0.0,0.0,51,0.00,,,0.00,LWC V2.10 B1813,2013-03-26 22:27:00,
2013-03-26 16:32:00,43.7,26.8,29.65,SSE,157,0.0,0.0,51,0.00,,,0.00,LWC V2.10 B1813,2013-03-26 22:32:00,
2013-03-26 16:37:00,43.9,26.5,29.65,SSE,157,0.0,0.0,50,0.00,,,0.00,LWC V2.10 B1813,2013-03-26 22:37:00,
2013-03-26 16:42:00,43.9,26.5,29.65,SE,135,0.0,0.0,50,0.00,,,0.00,LWC V2.10 B1813,2013-03-26 22:42:00,
2013-03-26 16:47:00,45.3,26.7,29.65,WSW,247,0.0,0.0,48,0.00,,,0.00,LWC V2.10 B1813,2013-03-26 22:47:00,
2013-03-26 16:52:00,46.2,27.5,29.66,WSW,247,1.1,1.1,48,0.00,,,0.00,LWC V2.10 B1813,2013-03-26 22:52:00,
2013-03-26 16:57:00,47.3,28.0,29.65,WSW,247,0.0,0.0,47,0.00,,,0.00,LWC V2.10 B1813,2013-03-26 22:57:00,
2013-03-26 17:02:00,48.9,29.4,29.65,WSW,247,0.0,0.0,47,0.00,,,0.00,LWC V2.10 B1813,2013-03-26 23:02:00,
2013-03-26 17:07:00,49.3,29.8,29.66,WSW,247,0.0,0.0,47,0.00,,,0.00,LWC V2.10 B1813,2013-03-26 23:07:00,
2013-03-26 17:12:00,49.8,29.8,29.66,WSW,247,0.0,0.0,46,0.00,,,0.00,LWC V2.10 B1813,2013-03-26 23:12:00,
2013-03-26 17:17:00,49.8,29.8,29.65,WSW,247,0.0,0.0,46,0.00,,,0.00,LWC V2.10 B1813,2013-03-26 23:17:00,
2013-03-26 17:22:00,50.2,30.1,29.65,WSW,247,0.0,0.0,46,0.00,,,0.00,LWC V2.10 B1813,2013-03-26 23:22:00,
2013-03-26 17:27:00,49.6,29.6,29.65,WSW,247,0.0,0.0,46,0.00,,,0.00,LWC V2.10 B1813,2013-03-26 23:27:00,
2013-03-26 17:32:00,49.6,29.6,29.65,South,180,4.2,4.2,46,0.00,,,0.00,LWC V2.10 B1813,2013-03-26 23:32:00,
2013-03-26 17:37:00,49.3,29.2,29.65,WSW,247,1.3,1.3,46,0.00,,,0.00,LWC V2.10 B1813,2013-03-26 23:37:00,
2013-03-26 17:43:00,49.8,29.8,29.65,WSW,247,0.0,0.0,46,0.00,,,0.00,LWC V2.10 B1813,2013-03-26 23:43:00,
2013-03-26 17:48:00,49.3,28.7,29.65,SE,135,0.0,0.0,45,0.00,,,0.00,LWC V2.10 B1813,2013-03-26 23:48:00,
2013-03-26 17:53:00,49.1,28.5,29.65,WSW,247,4.2,4.2,45,0.00,,,0.00,LWC V2.10 B1813,2013-03-26 23:53:00,
2013-03-26 17:58:00,48.0,27.5,29.66,SE,135,0.0,0.0,45,0.00,,,0.00,LWC V2.10 B1813,2013-03-26 23:58:00,
2013-03-26 18:03:00,47.3,27.4,29.66,SSE,157,1.8,1.8,46,0.00,,,0.00,LWC V2.10 B1813,2013-03-27 00:03:00,
2013-03-26 18:08:00,46.2,27.0,29.66,SE,135,2.0,2.0,47,0.00,,,0.00,LWC V2.10 B1813,2013-03-27 00:08:00,
2013-03-26 18:13:00,45.1,26.8,29.67,SSE,157,0.0,0.0,49,0.00,,,0.00,LWC V2.10 B1813,2013-03-27 00:13:00,
2013-03-26 18:18:00,43.9,26.5,29.67,SE,135,0.0,0.7,50,0.00,,,0.00,LWC V2.10 B1813,2013-03-27 00:18:00,
2013-03-26 18:23:00,43.2,26.3,29.67,SE,135,0.0,0.0,51,0.00,,,0.00,LWC V2.10 B1813,2013-03-27 00:23:00,
2013-03-26 18:28:00,42.6,25.8,29.67,SE,135,0.0,0.0,51,0.00,,,0.00,LWC V2.10 B1813,2013-03-27 00:28:00,
2013-03-26 18:33:00,42.1,25.7,29.67,SE,135,0.0,0.0,52,0.00,,,0.00,LWC V2.10 B1813,2013-03-27 00:33:00,
2013-03-26 18:38:00,41.7,25.3,29.67,ENE,67,0.0,0.0,52,0.00,,,0.00,LWC V2.10 B1813,2013-03-27 00:38:00,
2013-03-26 18:43:00,41.4,25.2,29.68,ENE,67,0.0,0.0,53,0.00,,,0.00,LWC V2.10 B1813,2013-03-27 00:43:00,
2013-03-26 18:48:00,40.8,25.3,29.68,ENE,67,0.0,0.0,54,0.00,,,0.00,LWC V2.10 B1813,2013-03-27 00:48:00,
2013-03-26 18:53:00,40.6,25.2,29.68,ENE,67,0.0,0.0,54,0.00,,,0.00,LWC V2.10 B1813,2013-03-27 00:53:00,
2013-03-26 18:58:00,40.3,25.1,29.68,NE,45,0.0,0.0,55,0.00,,,0.00,LWC V2.10 B1813,2013-03-27 00:58:00,
2013-03-26 19:03:00,39.9,24.9,29.68,NE,45,0.0,0.0,55,0.00,,,0.00,LWC V2.10 B1813,2013-03-27 01:03:00,
2013-03-26 19:08:00,39.7,24.8,29.68,ESE,112,0.0,0.0,55,0.00,,,0.00,LWC V2.10 B1813,2013-03-27 01:08:00,
2013-03-26 19:13:00,39.0,24.9,29.69,ESE,112,0.0,0.0,56,0.00,,,0.00,LWC V2.10 B1813,2013-03-27 01:13:00,
2013-03-26 19:18:00,39.0,25.0,29.69,ESE,112,0.0,0.0,57,0.00,,,0.00,LWC V2.10 B1813,2013-03-27 01:18:00,
2013-03-26 19:23:00,38.8,24.8,29.69,ESE,112,0.0,0.0,57,0.00,,,0.00,LWC V2.10 B1813,2013-03-27 01:23:00,
2013-03-26 19:28:00,38.7,24.9,29.70,ESE,112,0.0,0.0,58,0.00,,,0.00,LWC V2.10 B1813,2013-03-27 01:28:00,
2013-03-26 19:33:00,38.5,24.9,29.69,ESE,112,0.0,0.0,58,0.00,,,0.00,LWC V2.10 B1813,2013-03-27 01:33:00,
2013-03-26 19:38:00,38.3,24.7,29.70,ESE,112,0.0,0.0,58,0.00,,,0.00,LWC V2.10 B1813,2013-03-27 01:38:00,
2013-03-26 19:43:00,38.1,25.0,29.69,ESE,112,0.0,0.0,59,0.00,,,0.00,LWC V2.10 B1813,2013-03-27 01:43:00,
2013-03-26 19:48:00,38.1,25.4,29.69,ESE,112,0.0,0.0,60,0.00,,,0.00,LWC V2.10 B1813,2013-03-27 01:48:00,
2013-03-26 19:53:00,37.9,25.7,29.69,ESE,112,0.0,0.0,61,0.00,,,0.00,LWC V2.10 B1813,2013-03-27 01:53:00,
2013-03-26 19:58:00,37.8,25.9,29.69,ESE,112,0.0,0.0,62,0.00,,,0.00,LWC V2.10 B1813,2013-03-27 01:58:00,
2013-03-26 20:03:00,37.6,25.7,29.70,ESE,112,0.0,0.0,62,0.00,,,0.00,LWC V2.10 B1813,2013-03-27 02:03:00,
2013-03-26 20:08:00,37.2,25.4,29.69,ESE,112,0.0,0.0,62,0.00,,,0.00,LWC V2.10 B1813,2013-03-27 02:08:00,
2013-03-26 20:13:00,37.2,25.4,29.71,SSW,202,2.2,2.2,62,0.00,,,0.00,LWC V2.10 B1813,2013-03-27 02:13:00,
2013-03-26 20:18:00,37.0,25.6,29.71,SSW,202,0.0,0.0,63,0.00,,,0.00,LWC V2.10 B1813,2013-03-27 02:18:00,
2013-03-26 20:23:00,37.0,25.6,29.70,ENE,67,0.0,0.0,63,0.00,,,0.00,LWC V2.10 B1813,2013-03-27 02:23:00,
2013-03-26 20:28:00,37.0,25.6,29.70,SW,225,0.0,0.0,63,0.00,,,0.00,LWC V2.10 B1813,2013-03-27 02:28:00,
2013-03-26 20:33:00,37.2,25.8,29.71,WSW,247,0.0,0.0,63,0.00,,,0.00,LWC V2.10 B1813,2013-03-27 02:33:00,
2013-03-26 20:38:00,37.2,25.8,29.71,SW,225,0.0,0.0,63,0.00,,,0.00,LWC V2.10 B1813,2013-03-27 02:38:00,
2013-03-26 20:43:00,37.2,25.8,29.72,SW,225,0.0,0.0,63,0.00,,,0.00,LWC V2.10 B1813,2013-03-27 02:43:00,
2013-03-26 20:48:00,37.4,25.9,29.72,SW,225,0.0,0.0,63,0.00,,,0.00,LWC V2.10 B1813,2013-03-27 02:48:00,
2013-03-26 20:53:00,37.4,25.9,29.72,SW,225,0.0,0.0,63,0.00,,,0.00,LWC V2.10 B1813,2013-03-27 02:53:00,
2013-03-26 20:58:00,37.0,26.0,29.72,SW,225,0.0,0.0,64,0.00,,,0.00,LWC V2.10 B1813,2013-03-27 02:58:00,
2013-03-26 21:03:00,36.7,25.6,29.72,SW,225,0.0,0.0,64,0.00,,,0.00,LWC V2.10 B1813,2013-03-27 03:03:00,
2013-03-26 21:08:00,36.7,25.6,29.73,SW,225,0.0,0.0,64,0.00,,,0.00,LWC V2.10 B1813,2013-03-27 03:08:00,
2013-03-26 21:13:00,36.5,25.5,29.73,SW,225,0.0,0.0,64,0.00,,,0.00,LWC V2.10 B1813,2013-03-27 03:13:00,
2013-03-26 21:18:00,36.5,25.1,29.72,SW,225,0.0,0.0,63,0.00,,,0.00,LWC V2.10 B1813,2013-03-27 03:18:00,
2013-03-26 21:23:00,36.5,25.1,29.73,SW,225,0.0,0.0,63,0.00,,,0.00,LWC V2.10 B1813,2013-03-27 03:23:00,
2013-03-26 21:28:00,36.7,25.2,29.73,SW,225,0.0,0.0,63,0.00,,,0.00,LWC V2.10 B1813,2013-03-27 03:28:00,
2013-03-26 21:33:00,36.7,25.2,29.73,SW,225,0.0,0.0,63,0.00,,,0.00,LWC V2.10 B1813,2013-03-27 03:33:00,
2013-03-26 21:38:00,36.9,25.4,29.73,SW,225,0.0,0.0,63,0.00,,,0.00,LWC V2.10 B1813,2013-03-27 03:38:00,
2013-03-26 21:43:00,36.9,25.8,29.73,SW,225,0.0,0.0,64,0.00,,,0.00,LWC V2.10 B1813,2013-03-27 03:43:00,
2013-03-26 21:48:00,36.7,25.6,29.73,SW,225,0.0,0.0,64,0.00,,,0.00,LWC V2.10 B1813,2013-03-27 03:48:00,
2013-03-26 21:53:00,37.0,25.2,29.74,SE,135,0.0,0.0,62,0.00,,,0.00,LWC V2.10 B1813,2013-03-27 03:53:00,
2013-03-26 21:58:00,37.8,25.1,29.74,SE,135,1.8,1.8,60,0.00,,,0.00,LWC V2.10 B1813,2013-03-27 03:58:00,
2013-03-26 22:00:00,37.9,24.9,29.74,ESE,112,0.0,1.8,59,0.00,,,0.00,LWC V2.10 B1813,2013-03-27 04:00:00,
2013-03-26 22:01:00,37.9,24.9,29.74,ESE,112,0.0,0.0,59,0.00,,,0.00,LWC V2.10 B1813,2013-03-27 04:01:00,
2013-03-26 22:06:00,37.9,24.9,29.74,ESE,112,0.0,0.0,59,0.00,,,0.00,LWC V2.10 B1813,2013-03-27 04:06:00,
2013-03-26 22:11:00,37.9,25.3,29.74,ESE,112,0.0,0.0,60,0.00,,,0.00,LWC V2.10 B1813,2013-03-27 04:11:00,
2013-03-26 22:16:00,37.9,25.3,29.74,ESE,112,0.0,0.0,60,0.00,,,0.00,LWC V2.10 B1813,2013-03-27 04:16:00,
2013-03-26 22:21:00,37.9,25.3,29.75,ESE,112,0.0,0.0,60,0.00,,,0.00,LWC V2.10 B1813,2013-03-27 04:21:00,
2013-03-26 22:26:00,37.9,25.3,29.75,ESE,112,0.0,0.0,60,0.00,,,0.00,LWC V2.10 B1813,2013-03-27 04:26:00,
2013-03-26 22:32:00,37.9,25.3,29.75,ESE,112,0.0,0.0,60,0.00,,,0.00,LWC V2.10 B1813,2013-03-27 04:32:00,
2013-03-26 22:37:00,37.6,25.3,29.75,ESE,112,0.0,0.0,61,0.00,,,0.00,LWC V2.10 B1813,2013-03-27 04:37:00,
2013-03-26 22:42:00,37.4,25.2,29.75,ESE,112,0.0,0.0,61,0.00,,,0.00,LWC V2.10 B1813,2013-03-27 04:42:00,
2013-03-26 22:47:00,37.2,25.0,29.75,ESE,112,0.0,0.0,61,0.00,,,0.00,LWC V2.10 B1813,2013-03-27 04:47:00,
2013-03-26 22:52:00,37.2,25.0,29.75,ESE,112,0.0,0.0,61,0.00,,,0.00,LWC V2.10 B1813,2013-03-27 04:52:00,
2013-03-26 22:57:00,37.0,25.2,29.75,ESE,112,0.0,0.0,62,0.00,,,0.00,LWC V2.10 B1813,2013-03-27 04:57:00,
2013-03-26 23:02:00,37.0,25.1,29.74,ESE,112,0.0,0.0,62,0.00,,,0.00,LWC V2.10 B1813,2013-03-27 05:02:00,
2013-03-26 23:07:00,37.0,25.2,29.75,ESE,112,0.0,0.0,62,0.00,,,0.00,LWC V2.10 B1813,2013-03-27 05:07:00,
2013-03-26 23:12:00,36.9,25.1,29.74,ESE,112,0.0,0.0,62,0.00,,,0.00,LWC V2.10 B1813,2013-03-27 05:12:00,
2013-03-26 23:17:00,36.7,24.9,29.75,ESE,112,0.0,0.0,62,0.00,,,0.00,LWC V2.10 B1813,2013-03-27 05:17:00,
2013-03-26 23:22:00,36.5,24.7,29.75,ESE,112,0.0,0.0,62,0.00,,,0.00,LWC V2.10 B1813,2013-03-27 05:22:00,
2013-03-26 23:27:00,36.1,24.7,29.74,SSE,157,0.0,0.0,63,0.00,,,0.00,LWC V2.10 B1813,2013-03-27 05:27:00,
2013-03-26 23:32:00,35.4,24.8,29.74,SSE,157,0.0,0.0,64,0.00,,,0.00,LWC V2.10 B1813,2013-03-27 05:32:00,
2013-03-26 23:37:00,35.2,24.3,29.74,SSE,157,0.0,0.0,64,0.00,,,0.00,LWC V2.10 B1813,2013-03-27 05:37:00,
2013-03-26 23:42:00,35.2,24.3,29.75,SSE,157,0.0,0.0,64,0.00,,,0.00,LWC V2.10 B1813,2013-03-27 05:42:00,
2013-03-26 23:47:00,34.9,23.9,29.75,SSE,157,0.0,0.0,65,0.00,,,0.00,LWC V2.10 B1813,2013-03-27 05:47:00,
2013-03-26 23:52:00,34.3,23.7,29.75,SSE,157,0.0,0.0,65,0.00,,,0.00,LWC V2.10 B1813,2013-03-27 05:52:00,
2013-03-26 23:57:00,34.0,23.7,29.75,South,180,0.0,0.0,66,0.00,,,0.00,LWC V2.10 B1813,2013-03-27 05:57:00,